This demonstration page uses our WeatherBlox Daily Observations layout. Learn more.

Left ArrowRight Arrow

40.92945, -100.16068

Hourly Observations for March 24, 2021

Temp ( °F °C ) Dew Point ( °F °C ) Humidity (%) Winds ( mph kmh ) Pressure ( in mb ) Visibility ( mi km ) Precip ( " mm )
12:15 am 00:15 Cloudy with Drizzle 38 3.2 35 1.4 88 88 N 24 39 29.89 1012 10 16 N/A
12:35 am 00:35 Cloudy with Light Rain 38 3.2 35 1.4 88 88 N 25 41 29.89 1012 10 16 N/A
12:55 am 00:55 Cloudy with Drizzle 38 3.1 34 1.2 88 88 NNW 22 35 29.90 1012 10 16 N/A
1:15 am 01:15 Cloudy with Drizzle 38 3.2 34 1.2 87 87 N 23 37 29.90 1012 10 16 N/A
1:35 am 01:35 Cloudy 38 3.2 34 1.1 86 86 N 26 43 29.90 1012 10 16 N/A
1:55 am 01:55 Cloudy 38 3.3 34 1.1 86 86 N 26 43 29.89 1012 10 16 N/A
2:15 am 02:15 Cloudy 38 3.2 34 1.1 86 86 NNW 26 43 29.90 1012 10 16 N/A
2:35 am 02:35 Cloudy 38 3.2 34 1.1 86 86 NNW 17 28 29.91 1013 10 16 N/A
2:55 am 02:55 Cloudy 38 3.3 34 1.1 86 86 NNW 18 30 29.90 1013 10 16 N/A
3:15 am 03:15 Cloudy 38 3.3 34 1 85 85 NNW 20 31 29.90 1013 10 16 N/A
3:35 am 03:35 Cloudy 38 3.4 34 1 84 84 NNW 17 28 29.89 1012 10 16 N/A
3:55 am 03:55 Mostly Cloudy 38 3.2 34 1 86 86 NNW 18 30 29.90 1012 10 16 N/A
4:15 am 04:15 Partly Cloudy 37 3 34 0.9 86 86 NNW 17 28 29.90 1012 10 16 N/A
4:35 am 04:35 Clear 37 2.8 33 0.6 86 86 NNW 16 26 29.91 1013 10 16 N/A
4:55 am 04:55 Clear 37 2.6 33 0.5 86 86 NNW 15 24 29.92 1013 10 16 N/A
5:15 am 05:15 Clear 36 2.3 32 0.2 86 86 NW 12 19 29.92 1013 10 16 N/A
5:35 am 05:35 Clear 35 1.7 32 0.2 90 90 NW 10 17 29.94 1014 10 16 N/A
5:55 am 05:55 Clear 35 1.5 32 0.1 91 91 WNW 12 19 29.95 1014 10 16 N/A
6:15 am 06:15 Clear 34 1.3 32 undefined 91 91 WNW 13 20 29.96 1015 10 16 N/A
6:35 am 06:35 Clear 35 1.4 32 undefined 91 91 NW 12 19 29.97 1015 10 16 N/A
6:55 am 06:55 Clear 34 1.2 31 -0.5 89 89 NW 13 20 29.97 1015 10 16 N/A
7:15 am 07:15 Clear 34 1 31 -0.5 90 90 WNW 10 17 29.99 1015 10 16 N/A
7:35 am 07:35 Sunny 33 0.7 31 -0.4 92 92 WNW 12 19 30.00 1016 10 16 N/A
7:55 am 07:55 Sunny 34 1.1 32 -0.2 91 91 NW 12 19 30.00 1016 10 16 N/A
8:15 am 08:15 Sunny 34 1 32 -0.2 92 92 NNW 8 13 30.00 1016 10 16 N/A
8:35 am 08:35 Sunny 35 1.7 32 undefined 89 89 NNW 10 17 29.99 1016 10 16 N/A
8:55 am 08:55 Sunny 36 2.3 32 undefined 85 85 NNW 12 19 29.99 1016 10 16 N/A
9:15 am 09:15 Sunny 37 2.7 32 0.2 84 84 NNW 15 24 29.98 1015 10 16 N/A
9:35 am 09:35 Sunny 38 3.4 33 0.5 82 82 NNW 20 31 29.98 1015 10 16 N/A
9:55 am 09:55 Sunny 39 3.8 33 0.7 80 80 NNW 17 28 29.99 1016 10 16 N/A
10:15 am 10:15 Partly Cloudy 39 4 33 0.6 79 79 NNW 18 30 30.01 1016 10 16 N/A
10:35 am 10:35 Partly Cloudy 39 4 34 0.9 80 80 NNW 17 28 30.01 1016 10 16 N/A
10:55 am 10:55 Mostly Cloudy 40 4.5 34 1.3 80 80 NNW 24 39 30.00 1016 10 16 N/A
11:15 am 11:15 Mostly Cloudy 40 4.7 34 1.3 79 79 N 22 35 29.99 1016 10 16 N/A
11:35 am 11:35 Mostly Cloudy 41 5.2 35 1.4 77 77 NNW 21 33 30.01 1016 10 16 N/A
11:55 am 11:55 Mostly Cloudy 42 5.8 35 1.8 76 76 NNW 18 30 29.99 1016 10 16 N/A
12:15 pm 12:15 Cloudy 43 5.9 35 1.6 74 74 N 17 28 29.98 1015 10 16 N/A
12:35 pm 12:35 Mostly Cloudy 44 6.6 35 1.8 72 72 N 21 33 29.95 1014 10 16 N/A
12:55 pm 12:55 Partly Cloudy 45 7 35 1.7 69 69 N 21 33 29.95 1014 10 16 N/A
1:15 pm 13:15 Mostly Cloudy 45 7 35 1.5 68 68 NNW 14 22 29.96 1015 10 16 N/A
1:35 pm 13:35 Cloudy 45 7.3 35 1.4 66 66 N 14 22 29.96 1014 10 16 N/A
1:55 pm 13:55 Partly Cloudy 46 7.5 35 1.7 67 67 N 15 24 29.96 1015 10 16 N/A
2:15 pm 14:15 Partly Cloudy 45 7.3 34 0.9 64 64 N 10 17 29.96 1014 10 16 N/A
2:35 pm 14:35 Partly Cloudy 46 7.9 34 0.9 62 62 N 8 13 29.94 1014 10 16 N/A
2:55 pm 14:55 Mostly Cloudy 47 8.1 34 1.3 63 63 N 12 19 29.93 1014 10 16 N/A
3:15 pm 15:15 Mostly Cloudy 47 8.3 36 2 65 65 N 13 20 29.93 1013 10 16 N/A
3:35 pm 15:35 Mostly Cloudy 47 8.5 36 2.1 64 64 N 10 17 29.92 1013 10 16 N/A
3:55 pm 15:55 Mostly Cloudy 46 8 33 0.4 59 59 NNE 9 15 29.92 1013 10 16 N/A
4:15 pm 16:15 Partly Cloudy 46 7.7 33 0.6 61 61 NNW 6 9 29.92 1013 10 16 N/A
4:35 pm 16:35 Mostly Cloudy 46 8 34 0.9 61 61 N 7 11 29.92 1013 10 16 N/A
4:55 pm 16:55 Cloudy 46 7.7 33 0.5 61 61 N 3 6 29.91 1013 10 16 N/A
5:15 pm 17:15 Mostly Cloudy 47 8.2 33 0.5 59 59 N 7 11 29.91 1013 10 16 N/A
5:35 pm 17:35 Mostly Cloudy 46 7.8 33 0.7 61 61 N 7 11 29.90 1013 10 16 N/A
5:55 pm 17:55 Mostly Cloudy 46 7.8 32 undefined 58 58 N N/A 29.90 1013 10 16 N/A
6:15 pm 18:15 Mostly Cloudy 46 7.8 31 -0.3 57 57 NNW 5 7 29.90 1013 10 16 N/A
6:35 pm 18:35 Partly Cloudy 46 7.8 32 -0.2 57 57 N N/A 29.90 1013 10 16 N/A
6:55 pm 18:55 Mostly Cloudy 46 7.5 33 0.4 61 61 N N/A 29.90 1013 10 16 N/A
7:15 pm 19:15 Cloudy 45 7.3 33 0.3 61 61 ENE 5 7 29.91 1013 10 16 N/A
7:35 pm 19:35 Cloudy 45 7.2 34 0.9 65 65 ENE 3 6 29.91 1013 10 16 N/A
7:55 pm 19:55 Cloudy 44 6.8 35 1.5 69 69 ENE 5 7 29.91 1013 10 16 N/A
8:15 pm 20:15 Partly Cloudy 43 6.1 35 1.9 75 75 NE 5 7 29.91 1013 10 16 N/A
8:35 pm 20:35 Partly Cloudy 41 5.2 35 1.6 78 78 E 6 9 29.92 1013 10 16 N/A
8:55 pm 20:55 Clear 41 5 34 1.1 76 76 E 7 11 29.92 1013 10 16 N/A
9:15 pm 21:15 Clear 41 4.8 34 0.9 76 76 E 7 11 29.92 1013 10 16 N/A
9:35 pm 21:35 Clear 41 4.9 33 0.5 73 73 E 8 13 29.93 1014 10 16 N/A
9:55 pm 21:55 Clear 40 4.6 33 0.7 76 76 ESE 8 13 29.93 1014 10 16 N/A
10:15 pm 22:15 Clear 40 4.4 33 0.8 78 78 ESE 9 15 29.93 1014 10 16 N/A
10:35 pm 22:35 Clear 40 4.2 33 0.8 79 79 ESE 6 9 29.94 1014 10 16 N/A
10:55 pm 22:55 Clear 39 3.9 34 0.9 81 81 SE 5 7 29.94 1014 10 16 N/A
11:15 pm 23:15 Clear 38 3.5 34 1 84 84 SE 6 9 29.94 1014 10 16 N/A
11:35 pm 23:35 Clear 38 3.5 34 1 84 84 SE 6 9 29.94 1014 10 16 N/A
11:55 pm 23:55 Clear 38 3.1 34 1.1 87 87 SE 3 6 29.94 1014 10 16 N/A

Powered by AerisWeather